Flag for Burkina Faso Weather past 2 weeks in Koudougou, Burkina Faso

Now
81 °F

Passing clouds.


Feels Like: 86 °F
Forecast: N/A
Wind: 5 mph from South

Location: Ouagadougou Airport

Current Time: Jul 31, 2014 at 11:09:09 PM

Latest Report: Jul 31, 2014 at 10:00 PM


Visibility: N/A

Pressure: 30.01 "Hg

Humidity: 84%

Dew point: 75 °F

Location of KoudougouLocation

Historic Weather in Koudougou — Graph

°F

Koudougou temperature yesterday

Maximum temperature yesterday: 93 °F (at 2:00 PM)
Minimum temperature yesterday: 77 °F (at 4:00 AM)
Average temperature yesterday: 84 °F

Past Weeks' High & Low Weather Summary

 TemperatureHumidityPressure
High93 °F (Jul 21, 2:00 PM)100% (Jul 19, 2:00 AM)30.15 "Hg (Jul 19, 2:00 AM)
Low70 °F (Jul 17, 9:00 AM)49% (Jul 27, 3:00 PM)29.86 "Hg (Jul 26, 4:00 PM)
Average81 °F78%29.96 "Hg
* Reported Jul 16 9:00 PM — Jul 31 9:00 PM, Koudougou, Weather by CustomWeather, © 2014

Note: Actual official high and low records may vary slightly from our data, if they occured in-between our weather recording intervals... More about our weather records

Advertising

Koudougou weather history for previous 24 hours

 ConditionsComfort  
Time TempWeatherWind HumidityBarometerVisibility
9:00 PM
Jul 31
81 °FPassing clouds.3 mph84%29.98 "HgN/A
8:00 PM81 °FPassing clouds.2 mph89%29.95 "HgN/A
7:00 PM82 °FPassing clouds.No wind79%29.92 "HgN/A
6:00 PM84 °FPartly sunny.1 mph74%29.92 "HgN/A
5:00 PM86 °FPartly sunny.3 mph66%29.92 "HgN/A
4:00 PM84 °FPartly sunny.3 mph70%29.92 "HgN/A
3:00 PM84 °FBroken clouds.2 mph66%29.95 "HgN/A
2:00 PM86 °FBroken clouds.13 mph75%29.98 "HgN/A
1:00 PM86 °FBroken clouds.3 mph70%29.98 "HgN/A
12:00 PM84 °FPartly sunny.1 mph74%30.01 "HgN/A
11:00 AM81 °FPartly sunny.5 mph79%30.01 "HgN/A
10:00 AM79 °FPartly sunny.7 mph84%30.01 "HgN/A
9:00 AM77 °FPartly sunny.9 mph83%29.98 "HgN/A
8:00 AM75 °FPartly sunny.10 mph89%29.98 "HgN/A
7:00 AM73 °FThunderstorms. Partly sunny.16 mph94%29.98 "Hg5 mi
6:00 AM72 °FThunderstorms. Broken clouds.7 mph94%30.04 "Hg5 mi
2:00 AM75 °FThunderstorms. Partly cloudy.2 mph100%29.98 "Hg4 mi
1:00 AM75 °FThunderstorms. Partly cloudy.5 mph94%30.01 "Hg1 mi
12:00 AM77 °FThunderstorms. Partly cloudy.17 mph83%29.95 "HgN/A
11:00 PM
Jul 30
79 °FThunderstorms. Partly cloudy.3 mph84%29.98 "HgN/A
Weather by CustomWeather, © 2014

See weather overviewHow to use our weather pages